Hourly Data Report for December 05, 2003

TORONTO CITY
ONTARIO

43°40'00.000" N
79°24'00.000" W
112.50 m
6158355
71508
XTO

Download Data

Hourly Data (December 2003)
Hourly Data Report for December 5, 2003
TIME
LST
Temp Definition
°C
Dew Point Definition
°C
Rel Hum Definition
%
Precip. Amount Definition
mm

Wind Dir Definition
10's deg

Wind Spd Definition
km/h
Visibility Definition
km
Stn Press Definition
kPa
Hmdx Definition


Wind Chill Definition


Weather Definition


00:00 2.0 -0.8 82   LegendMM LegendMM LegendMM 101.19     LegendNANA
01:00 1.6 -1.1 82   LegendMM LegendMM LegendMM 101.16     LegendNANA
02:00 1.5 -1.2 82   LegendMM LegendMM LegendMM 101.13     LegendNANA
03:00 0.3 -1.7 86   LegendMM LegendMM LegendMM 101.11     LegendNANA
04:00 0.0 -1.8 88   LegendMM LegendMM LegendMM 101.07     LegendNANA
05:00 -0.3 -2.4 86   LegendMM LegendMM LegendMM 101.10     LegendNANA
06:00 -0.3 -2.8 83   LegendMM LegendMM LegendMM 101.07     LegendNANA
07:00 -0.6 -2.6 86   LegendMM LegendMM LegendMM 101.07     LegendNANA
08:00 -0.9 -3.0 86   LegendMM LegendMM LegendMM 101.08     LegendNANA
09:00 -3.2 -5.4 85   LegendMM LegendMM LegendMM 101.12     LegendNANA
10:00 -3.2 -5.6 83   LegendMM LegendMM LegendMM 101.15     LegendNANA
11:00 -2.8 -5.9 79   LegendMM LegendMM LegendMM 101.09     LegendNANA
12:00 -2.6 -6.5 75   LegendMM LegendMM LegendMM 101.02     LegendNANA
13:00 -2.0 -6.1 73   LegendMM LegendMM LegendMM 100.97     LegendNANA
14:00 -2.1 -8.9 60   LegendMM LegendMM LegendMM 100.92     LegendNANA
15:00 -1.5 -9.5 54   LegendMM LegendMM LegendMM 100.92     LegendNANA
16:00 -1.3 -10.2 51   LegendMM LegendMM LegendMM 100.93     LegendNANA
17:00 -1.4 -10.8 49   LegendMM LegendMM LegendMM 100.96     LegendNANA
18:00 -1.8 -12.0 46   LegendMM LegendMM LegendMM 101.00     LegendNANA
19:00 -2.6 -11.4 51   LegendMM LegendMM LegendMM 101.03     LegendNANA
20:00 -3.4 -12.4 50   LegendMM LegendMM LegendMM 101.01     LegendNANA
21:00 -3.9 -12.6 51   LegendMM LegendMM LegendMM 101.00     LegendNANA
22:00 -3.9 -12.2 52   LegendMM LegendMM LegendMM 100.98     LegendNANA
23:00 -3.8 -12.8 50   LegendMM LegendMM LegendMM 101.02     LegendNANA

Notes on Data Quality.

Legend

  • E = Estimated
  • M = Missing
  • NA = Not Available*
  • [empty] = Indicates an unobserved value
Date modified: